Hourly Weather Holyaky

Today, 11 May, Tuesday

Time Temperature Precipitation Wind Pressure Humidity
00:00 +7°C° 0 mm 2 mps 751 mmHg 78%
01:00 +7°C° 0 mm 3 mps 751 mmHg 79%
02:00 +7°C° 0 mm 3 mps 750 mmHg 80%
03:00 +7°C° 0 mm 3 mps 750 mmHg 79%
04:00 +7°C° 0 mm 3 mps 750 mmHg 78%
05:00 +7°C° 0 mm 3 mps 750 mmHg 78%
06:00 +7°C° 0 mm 4 mps 749 mmHg 74%
07:00 +10°C° 0 mm 4 mps 749 mmHg 70%
08:00 +10°C° 0 mm 5 mps 749 mmHg 66%
09:00 +13°C° 0 mm 5 mps 749 mmHg 64%
10:00 +15°C° 0 mm 6 mps 749 mmHg 63%
11:00 +17°C° 0 mm 6 mps 748 mmHg 61%
12:00 +19°C° 0 mm 6 mps 748 mmHg 61%
13:00 +20°C° 0 mm 6 mps 748 mmHg 61%
14:00 +20°C° 0 mm 6 mps 747 mmHg 60%
15:00 +19°C° 0 mm 6 mps 747 mmHg 66%
16:00 +17°C° 0 mm 5 mps 747 mmHg 71%
17:00 +17°C° 0 mm 4 mps 747 mmHg 77%
18:00 +15°C° 0.1 mm 4 mps 747 mmHg 81%
19:00 +14°C° 0.1 mm 4 mps 747 mmHg 85%
20:00 +12°C° 0.1 mm 4 mps 747 mmHg 89%
21:00 +11°C° 0 mm 4 mps 747 mmHg 91%
22:00 +10°C° 0 mm 3 mps 747 mmHg 93%
23:00 +9°C° 0 mm 3 mps 747 mmHg 94%

Tomorrow, 12 May, Wednesday

Time Temperature Precipitation Wind Pressure Humidity
00:00 +8°C° 0 mm 3 mps 747 mmHg 94%
01:00 +7°C° 0 mm 3 mps 747 mmHg 95%
02:00 +5°C° 0 mm 3 mps 747 mmHg 95%
03:00 +5°C° 0 mm 4 mps 747 mmHg 93%
04:00 +5°C° 0 mm 4 mps 747 mmHg 90%
05:00 +6°C° 0 mm 5 mps 747 mmHg 88%
06:00 +6°C° 0 mm 5 mps 747 mmHg 83%
07:00 +7°C° 0 mm 6 mps 747 mmHg 77%
08:00 +8°C° 0 mm 6 mps 747 mmHg 71%
09:00 +9°C° 0.1 mm 6 mps 747 mmHg 71%
10:00 +10°C° 0.1 mm 6 mps 746 mmHg 70%
11:00 +10°C° 0.1 mm 6 mps 746 mmHg 69%
12:00 +10°C° 0.1 mm 6 mps 746 mmHg 69%
13:00 +12°C° 0.1 mm 5 mps 746 mmHg 68%
14:00 +12°C° 0.1 mm 5 mps 746 mmHg 68%
15:00 +12°C° 0 mm 5 mps 745 mmHg 69%
16:00 +12°C° 0 mm 4 mps 745 mmHg 69%
17:00 +12°C° 0 mm 4 mps 745 mmHg 69%
18:00 +10°C° 0 mm 3 mps 744 mmHg 74%
19:00 +9°C° 0 mm 3 mps 744 mmHg 78%
20:00 +8°C° 0 mm 2 mps 744 mmHg 83%
21:00 +8°C° 0 mm 2 mps 744 mmHg 83%
22:00 +8°C° 0 mm 1 mps 744 mmHg 83%
23:00 +8°C° 0 mm 1 mps 744 mmHg 84%

Day after tomorrow, 13 May, Thursday

Time Temperature Precipitation Wind Pressure Humidity
00:00 +8°C° 0 mm 1 mps 743 mmHg 82%
01:00 +8°C° 0 mm 2 mps 743 mmHg 80%
02:00 +8°C° 0 mm 2 mps 743 mmHg 79%
03:00 +8°C° 0 mm 2 mps 743 mmHg 79%
04:00 +8°C° 0 mm 2 mps 743 mmHg 79%
05:00 +8°C° 0 mm 2 mps 743 mmHg 79%
06:00 +9°C° 0 mm 3 mps 743 mmHg 74%
07:00 +10°C° 0 mm 4 mps 743 mmHg 69%
08:00 +11°C° 0 mm 4 mps 743 mmHg 64%
09:00 +13°C° 0 mm 4 mps 743 mmHg 61%
10:00 +14°C° 0 mm 4 mps 743 mmHg 58%
11:00 +15°C° 0 mm 4 mps 743 mmHg 54%
12:00 +17°C° 0 mm 4 mps 743 mmHg 54%
13:00 +18°C° 0 mm 4 mps 742 mmHg 54%
14:00 +17°C° 0 mm 5 mps 742 mmHg 54%
15:00 +18°C° 0 mm 4 mps 742 mmHg 59%
16:00 +18°C° 0 mm 4 mps 742 mmHg 65%
17:00 +17°C° 0 mm 3 mps 742 mmHg 71%
18:00 +16°C° 0.5 mm 3 mps 742 mmHg 78%
19:00 +15°C° 0.5 mm 2 mps 742 mmHg 86%
20:00 +13°C° 0.5 mm 1 mps 742 mmHg 94%
21:00 +13°C° 0.3 mm 2 mps 742 mmHg 94%
22:00 +13°C° 0.3 mm 2 mps 741 mmHg 95%
23:00 +12°C° 0.3 mm 3 mps 741 mmHg 95%

14 May, Friday

Time Temperature Precipitation Wind Pressure Humidity
00:00 +11°C° 0.2 mm 3 mps 741 mmHg 95%
01:00 +12°C° 0.2 mm 2 mps 741 mmHg 95%
02:00 +10°C° 0.2 mm 2 mps 741 mmHg 95%
03:00 +10°C° 0 mm 2 mps 741 mmHg 95%
04:00 +10°C° 0 mm 2 mps 741 mmHg 95%
05:00 +10°C° 0 mm 2 mps 741 mmHg 95%
06:00 +13°C° 0 mm 2 mps 741 mmHg 88%
07:00 +14°C° 0 mm 3 mps 741 mmHg 81%
08:00 +16°C° 0 mm 3 mps 741 mmHg 75%
09:00 +18°C° 0 mm 3 mps 741 mmHg 69%
10:00 +19°C° 0 mm 3 mps 741 mmHg 64%
11:00 +20°C° 0 mm 3 mps 741 mmHg 58%
12:00 +20°C° 0 mm 3 mps 741 mmHg 58%
13:00 +20°C° 0 mm 3 mps 741 mmHg 58%
14:00 +21°C° 0 mm 2 mps 741 mmHg 59%
15:00 +21°C° 0 mm 2 mps 741 mmHg 61%
16:00 +21°C° 0 mm 2 mps 741 mmHg 64%
17:00 +20°C° 0 mm 2 mps 741 mmHg 67%
18:00 +19°C° 0.1 mm 2 mps 741 mmHg 71%
19:00 +18°C° 0.1 mm 1 mps 741 mmHg 75%
20:00 +16°C° 0.1 mm 1 mps 741 mmHg 79%
21:00 +15°C° 0.7 mm 1 mps 741 mmHg 84%
22:00 +15°C° 0.7 mm 1 mps 741 mmHg 89%
23:00 +14°C° 0.7 mm 1 mps 741 mmHg 94%

15 May, Saturday

Time Temperature Precipitation Wind Pressure Humidity
00:00 +14°C° 0.5 mm 1 mps 741 mmHg 94%
01:00 +14°C° 0.5 mm 1 mps 741 mmHg 94%
02:00 +14°C° 0.5 mm 1 mps 741 mmHg 94%
03:00 +13°C° 0 mm 1 mps 741 mmHg 94%
04:00 +13°C° 0 mm 1 mps 741 mmHg 94%
05:00 +13°C° 0 mm 2 mps 741 mmHg 94%
06:00 +14°C° 0.3 mm 2 mps 741 mmHg 93%
07:00 +13°C° 0.3 mm 3 mps 741 mmHg 93%
08:00 +14°C° 0.3 mm 3 mps 742 mmHg 92%
09:00 +14°C° 0.4 mm 4 mps 742 mmHg 87%
10:00 +15°C° 0.4 mm 4 mps 742 mmHg 83%
11:00 +17°C° 0.4 mm 4 mps 743 mmHg 78%
12:00 +18°C° 0 mm 4 mps 743 mmHg 72%
13:00 +19°C° 0 mm 4 mps 743 mmHg 67%
14:00 +19°C° 0 mm 4 mps 743 mmHg 61%
15:00 +19°C° 0 mm 4 mps 743 mmHg 62%
16:00 +19°C° 0 mm 3 mps 743 mmHg 63%
17:00 +19°C° 0 mm 2 mps 743 mmHg 64%
18:00 +18°C° 0 mm 2 mps 743 mmHg 68%
19:00 +16°C° 0 mm 2 mps 743 mmHg 72%
20:00 +15°C° 0 mm 1 mps 743 mmHg 76%
21:00 +14°C° 0 mm 1 mps 744 mmHg 78%
22:00 +13°C° 0 mm 1 mps 744 mmHg 80%
23:00 +13°C° 0 mm 1 mps 744 mmHg 82%

16 May, Sunday

Time Temperature Precipitation Wind Pressure Humidity
00:00 +12°C° 0 mm 1 mps 744 mmHg 82%
01:00 +12°C° 0 mm 1 mps 744 mmHg 83%
02:00 +12°C° 0 mm 1 mps 744 mmHg 83%
03:00 +11°C° 0 mm 0 mps 744 mmHg 83%
04:00 +11°C° 0 mm 0 mps 744 mmHg 83%
05:00 +11°C° 0 mm 0 mps 744 mmHg 83%
06:00 +13°C° 0 mm 0 mps 745 mmHg 78%
07:00 +15°C° 0 mm 1 mps 745 mmHg 74%
08:00 +18°C° 0 mm 1 mps 746 mmHg 70%
09:00 +19°C° 0 mm 1 mps 746 mmHg 66%
10:00 +19°C° 0 mm 2 mps 746 mmHg 62%
11:00 +21°C° 0 mm 2 mps 745 mmHg 58%
12:00 +21°C° 0 mm 2 mps 745 mmHg 56%
13:00 +22°C° 0 mm 3 mps 745 mmHg 54%
14:00 +22°C° 0 mm 3 mps 745 mmHg 52%
15:00 +22°C° 0 mm 3 mps 745 mmHg 55%
16:00 +21°C° 0 mm 3 mps 745 mmHg 59%
17:00 +21°C° 0 mm 3 mps 745 mmHg 63%
18:00 +19°C° 0 mm 3 mps 745 mmHg 67%
19:00 +18°C° 0 mm 2 mps 745 mmHg 70%
20:00 +16°C° 0 mm 2 mps 745 mmHg 74%
21:00 +16°C° 0 mm 2 mps 745 mmHg 76%
22:00 +14°C° 0 mm 3 mps 745 mmHg 78%
23:00 +14°C° 0 mm 3 mps 745 mmHg 80%
Show more

We Need Your Consent

Meteoprog and our Service Providers may store and access personal data such as cookies, device identifiers or other similar technologies on your device and process such data to personalise content and ads, as well as provide social media features and to analyse the traffic.

  • Store and/or access information on your device

    Cookies, device identifiers or other information can be stored or accessed on your device for the purposes indicated above.

  • Personalised ads and content, ad and content measurement, audience insights, and products development

    Ads and content can be personalised based on a profile. More data can be added to better personalise ads and content. Ad and content performance can be measured. Insights about the audience who saw the ads and content can be derived. Such data can be used to develop or improve user’s experience, systems and software.

By clicking ‘I Agree’ you will allow the use of indicated cookies, device identifiers, web beacons or other similar technologies. Your settings can be changed in the browser on your device.

For certain purposes, legitimate interests may be relied on, rather than consent. You can read more about this in our Privacy and Cookie Policy.